Вернуться в каталог

DELTA 1 DEB

АктивенLEO
NORAD 14470·DEBRIS·🇺🇸 United States

Запущен Nov 6, 1973 с Vandenberg Space Force Base

Loading…

Ближайшие Пролёты (ближайшие 24 часа)

TLE

СвежийSource: Space-Track

Эпоха: Sep 13, 2026, 07:50 UTC

1 14470U 73086GP  26256.32657441  .00000145  00000-0  77948-3 0  9991
2 14470 101.7564 162.7437 0122177  18.9114 103.9808 12.84138315 42771

Отслеживайте DELTA 1 DEB в реальном времени с AllMySat

Download on the App Store